Date String (YYYY-MM-DD hh:mm:ss) UTC,Instrument flags,Ambient pressure (hPa),Sample flow (lpm),Bypass flow (lpm),Sample temperature (°C),Ambient temperature (°C),ASC tube jacket temperature (°C),LED temperature (°C),Box temperature (°C),Sample RH (%),Span deviation,Mass concentration (μg/m³),Mass concentration (μg/m³),Mass concentration (μg/m³)
DateTimeUTC,F1_M11,P_M11,Q1_M11,Q2_M11,T1_M11,T2_M11,T3_M11,T4_M11,T5_M11,U1_M11,ZSPAN_M11,X0_M11,X2_M11,X1_M11
2021-09-04 21:00:00,,0828.9,5.01,0.00,29.2,27.6,00.0,38.3,31.1,22.2,0001.1,0024.20,0015.73,0014.92
2021-09-04 21:01:00,,0828.9,5.00,0.00,29.3,28.0,00.0,38.3,31.2,22.6,0001.0,0024.37,0015.82,0014.95
2021-09-04 21:02:00,,0828.9,5.00,0.00,29.3,28.2,00.0,38.3,31.3,22.6,0000.9,0023.94,0015.85,0014.97
2021-09-04 21:03:00,,0828.9,5.01,0.00,29.4,28.5,00.0,38.3,31.3,22.0,0001.0,0023.89,0015.83,0014.97
2021-09-04 21:04:00,,0828.9,5.02,0.00,29.5,28.5,00.0,38.3,31.4,21.8,0001.1,0023.28,0015.84,0015.00
2021-09-04 21:05:00,,0828.9,5.00,0.00,29.4,27.1,00.0,38.4,31.0,21.7,0001.6,0023.69,0015.85,0015.00
2021-09-04 21:06:00,,0828.9,5.00,0.00,29.3,25.8,00.0,38.3,30.6,21.8,0001.5,0022.82,0015.86,0015.02
2021-09-04 21:07:00,,0828.8,5.01,0.00,29.2,26.0,00.0,38.3,30.6,21.8,0001.5,0022.06,0015.84,0015.01
2021-09-04 21:08:00,,0828.8,5.01,0.00,29.1,26.4,00.0,38.3,30.7,21.9,0001.5,0022.39,0015.83,0015.01
2021-09-04 21:09:00,,0828.9,4.99,0.00,29.1,26.9,00.0,38.3,30.8,22.0,0001.6,0022.29,0015.83,0015.00
2021-09-04 21:10:00,,0828.9,5.00,0.00,29.2,27.3,00.0,38.2,30.9,22.2,0001.9,0022.32,0015.82,0014.99
2021-09-04 21:11:00,,0828.9,5.01,0.00,29.2,27.7,00.0,38.2,31.0,22.6,0001.9,0022.24,0015.75,0014.97
2021-09-04 21:12:00,,0828.8,4.99,0.00,29.3,28.0,00.0,38.3,31.2,22.5,0001.9,0021.89,0015.65,0014.92
2021-09-04 21:13:00,,0828.8,4.99,0.00,29.3,28.3,00.0,38.3,31.2,22.1,0001.9,0022.09,0015.58,0014.82
2021-09-04 21:14:00,,0828.8,5.00,0.00,29.4,28.4,00.0,38.3,31.3,21.6,0001.8,0022.30,0015.60,0014.82
2021-09-04 21:15:00,,0829.0,5.01,0.00,29.4,27.2,00.0,38.3,31.0,21.9,0001.6,0022.57,0015.61,0014.81
2021-09-04 21:16:00,,0829.4,4.98,0.00,29.2,25.8,00.0,38.3,30.6,22.2,0001.4,0022.94,0015.63,0014.79
2021-09-04 21:17:00,,0828.9,4.99,0.00,29.1,25.8,00.0,38.3,30.6,21.9,0001.4,0022.78,0015.59,0014.76
2021-09-04 21:18:00,,0828.7,5.00,0.00,29.1,26.3,00.0,38.2,30.7,21.7,0001.4,0023.42,0015.62,0014.75
2021-09-04 21:19:00,,0828.7,5.01,0.00,29.1,26.7,00.0,38.2,30.8,21.5,0001.3,0023.63,0015.59,0014.74
2021-09-04 21:20:00,,0828.7,4.99,0.00,29.1,27.2,00.0,38.2,30.9,21.6,0001.4,0024.26,0015.61,0014.77
2021-09-04 21:21:00,,0828.7,5.02,0.00,29.1,27.5,00.0,38.2,31.0,21.9,0001.2,0024.47,0015.58,0014.77
2021-09-04 21:22:00,,0828.7,5.00,0.00,29.2,27.9,00.0,38.2,31.1,21.7,0001.2,0024.09,0015.58,0014.77
2021-09-04 21:23:00,,0828.7,5.00,0.00,29.3,28.1,00.0,38.2,31.2,21.5,0001.4,0024.38,0015.66,0014.82
2021-09-04 21:24:00,,0828.7,5.00,0.00,29.3,28.4,00.0,38.2,31.3,21.7,0001.6,0024.21,0015.71,0014.89
2021-09-04 21:25:00,,0828.7,4.99,0.00,29.4,28.6,00.0,38.3,31.3,21.8,0001.2,0024.03,0015.69,0014.91
2021-09-04 21:26:00,,0828.7,4.99,0.00,29.4,28.7,00.0,38.3,31.4,21.3,0001.3,0024.13,0015.70,0014.91
2021-09-04 21:27:00,,0828.8,4.99,0.00,29.5,28.7,00.0,38.3,31.4,21.2,0001.4,0023.62,0015.66,0014.92
2021-09-04 21:28:00,,0829.0,5.00,0.00,29.5,27.1,00.0,38.3,31.0,21.0,0001.7,0023.41,0015.66,0014.92
2021-09-04 21:29:00,,0829.1,5.01,0.00,29.3,25.8,00.0,38.3,30.5,21.3,0001.7,0022.89,0015.69,0014.95
2021-09-04 21:30:00,,0829.2,5.00,0.00,29.2,26.1,00.0,38.3,30.6,21.2,0001.7,0022.04,0015.69,0014.97
2021-09-04 21:31:00,,0829.1,5.01,0.00,29.2,26.5,00.0,38.3,30.8,21.2,0001.6,0022.21,0015.68,0014.97
2021-09-04 21:32:00,,0829.0,4.99,0.00,29.2,27.0,00.0,38.2,30.9,21.4,0001.6,0022.19,0015.69,0014.98
2021-09-04 21:33:00,,0828.7,5.00,0.00,29.2,27.4,00.0,38.2,31.0,21.2,0001.5,0023.16,0015.73,0014.99
2021-09-04 21:34:00,,0828.6,5.00,0.00,29.3,27.8,00.0,38.2,31.1,21.6,0001.3,0024.01,0015.69,0014.95
2021-09-04 21:35:00,,0828.8,5.00,0.00,29.3,28.1,00.0,38.3,31.2,21.5,0001.4,0024.12,0015.70,0014.95
2021-09-04 21:36:00,,0829.0,4.99,0.00,29.4,28.4,00.0,38.3,31.3,21.1,0001.5,0024.77,0015.74,0014.95
2021-09-04 21:37:00,,0828.8,5.01,0.00,29.4,28.6,00.0,38.3,31.4,21.1,0001.5,0024.40,0015.76,0014.96
2021-09-04 21:38:00,,0828.7,4.99,0.00,29.5,28.7,00.0,38.3,31.4,20.8,0001.9,0024.10,0015.75,0014.94
2021-09-04 21:39:00,,0828.8,5.01,0.00,29.5,27.5,00.0,38.3,31.1,21.0,0001.8,0024.02,0015.72,0014.93
2021-09-04 21:40:00,,0829.0,5.00,0.00,29.3,26.0,00.0,38.3,30.7,21.0,0001.9,0024.13,0015.70,0014.90
2021-09-04 21:41:00,,0828.9,5.00,0.00,29.2,26.0,00.0,38.3,30.7,21.1,0002.0,0024.54,0015.73,0014.87
2021-09-04 21:42:00,,0828.8,5.00,0.00,29.2,26.4,00.0,38.3,30.8,21.2,0001.9,0023.65,0015.70,0014.86
2021-09-04 21:43:00,,0828.9,5.00,0.00,29.2,26.9,00.0,38.3,30.9,20.9,0001.8,0023.42,0015.70,0014.85
2021-09-04 21:44:00,,0829.0,4.99,0.00,29.2,27.3,00.0,38.3,31.0,21.0,0002.0,0023.65,0015.69,0014.84
2021-09-04 21:45:00,,0829.0,5.01,0.00,29.3,27.7,00.0,38.3,31.1,20.7,0002.2,0023.60,0015.70,0014.88
2021-09-04 21:46:00,,0828.9,4.99,0.00,29.3,28.0,00.0,38.3,31.2,20.4,0002.2,0023.80,0015.71,0014.86
2021-09-04 21:47:00,,0829.0,5.02,0.00,29.4,28.3,00.0,38.3,31.3,20.8,0002.3,0023.14,0015.66,0014.82
2021-09-04 21:48:00,,0828.9,5.00,0.00,29.4,28.5,00.0,38.3,31.4,20.5,0002.4,0023.11,0015.60,0014.79
2021-09-04 21:49:00,,0829.0,5.00,0.00,29.5,28.7,00.0,38.3,31.4,20.5,0001.9,0023.15,0015.60,0014.79
2021-09-04 21:50:00,,0828.8,5.00,0.00,29.5,28.6,00.0,38.4,31.4,20.3,0001.8,0023.28,0015.60,0014.76
2021-09-04 21:51:00,,0828.6,5.00,0.00,29.5,26.9,00.0,38.4,31.0,20.5,0001.7,0022.93,0015.59,0014.77
2021-09-04 21:52:00,,0828.6,4.99,0.00,29.3,25.8,00.0,38.4,30.6,20.8,0001.7,0023.03,0015.60,0014.78
2021-09-04 21:53:00,,0828.5,5.00,0.00,29.2,26.1,00.0,38.3,30.7,20.9,0001.8,0023.21,0015.61,0014.77
2021-09-04 21:54:00,,0828.5,4.99,0.00,29.2,26.6,00.0,38.3,30.8,20.9,0001.8,0023.05,0015.58,0014.75
2021-09-04 21:55:00,,0828.5,5.00,0.00,29.2,27.0,00.0,38.3,30.9,20.9,0001.6,0022.27,0015.60,0014.75
2021-09-04 21:56:00,,0828.6,5.01,0.00,29.2,27.5,00.0,38.3,31.0,20.9,0001.3,0021.38,0015.60,0014.74
2021-09-04 21:57:00,,0828.5,5.00,0.00,29.3,27.8,00.0,38.3,31.1,20.6,0001.2,0021.94,0015.56,0014.74
2021-09-04 21:58:00,,0828.5,5.01,0.00,29.3,28.1,00.0,38.3,31.2,20.6,0001.2,0022.49,0015.55,0014.75
2021-09-04 21:59:00,,0828.5,4.99,0.00,29.4,28.4,00.0,38.3,31.3,20.5,0001.1,0022.72,0015.57,0014.78
